When you browse on this site, cookies collect data to enhance your experience and personalize the content and advertising you see.
Visit our Privacy Policy to learn more. By continuing to use the site, you agree to this use of cookies and data.
  • en Suisse
  • Liste des pays
  • À 7 jours
  • Température de l'eau
  • Carte météo
  • Widgets météo
  • user-avatar
    Se connecter

    Météo par heure à Gostyzh

    Ce jour, 26 Août, Lundi

    Heure Température Précipitation Vent Pression Humidité
    00:00 +13°C° 0 mm 2 m/s 754 mmHg 90%
    01:00 +13°C° 0 mm 2 m/s 754 mmHg 92%
    02:00 +12°C° 0 mm 2 m/s 754 mmHg 93%
    03:00 +12°C° 0 mm 2 m/s 754 mmHg 93%
    04:00 +12°C° 0 mm 1 m/s 754 mmHg 93%
    05:00 +12°C° 0 mm 1 m/s 754 mmHg 93%
    06:00 +13°C° 0 mm 1 m/s 754 mmHg 86%
    07:00 +15°C° 0 mm 1 m/s 754 mmHg 80%
    08:00 +18°C° 0 mm 1 m/s 755 mmHg 74%
    09:00 +19°C° 0 mm 1 m/s 754 mmHg 70%
    10:00 +20°C° 0 mm 1 m/s 754 mmHg 65%
    11:00 +22°C° 0 mm 1 m/s 754 mmHg 61%
    12:00 +22°C° 0 mm 1 m/s 754 mmHg 61%
    13:00 +22°C° 0 mm 1 m/s 753 mmHg 60%
    14:00 +21°C° 0 mm 2 m/s 753 mmHg 60%
    15:00 +21°C° 0 mm 2 m/s 753 mmHg 63%
    16:00 +21°C° 0 mm 2 m/s 752 mmHg 66%
    17:00 +20°C° 0 mm 2 m/s 752 mmHg 69%
    18:00 +19°C° 0 mm 2 m/s 751 mmHg 73%
    19:00 +17°C° 0 mm 2 m/s 751 mmHg 77%
    20:00 +16°C° 0 mm 2 m/s 751 mmHg 80%
    21:00 +16°C° 0 mm 2 m/s 751 mmHg 81%
    22:00 +14°C° 0 mm 3 m/s 750 mmHg 82%
    23:00 +14°C° 0 mm 3 m/s 750 mmHg 83%

    Demain, 27 Août, Mardi

    Heure Température Précipitation Vent Pression Humidité
    00:00 +14°C° 0 mm 3 m/s 750 mmHg 85%
    01:00 +14°C° 0 mm 3 m/s 749 mmHg 86%
    02:00 +13°C° 0 mm 3 m/s 749 mmHg 87%
    03:00 +14°C° 0 mm 3 m/s 749 mmHg 87%
    04:00 +14°C° 0 mm 4 m/s 748 mmHg 87%
    05:00 +14°C° 0 mm 4 m/s 748 mmHg 87%
    06:00 +15°C° 0 mm 4 m/s 748 mmHg 86%
    07:00 +17°C° 0 mm 4 m/s 748 mmHg 84%
    08:00 +17°C° 0 mm 5 m/s 748 mmHg 83%
    09:00 +19°C° 0.5 mm 5 m/s 747 mmHg 80%
    10:00 +20°C° 0.5 mm 5 m/s 747 mmHg 77%
    11:00 +21°C° 0.5 mm 5 m/s 747 mmHg 74%
    12:00 +21°C° 0.1 mm 5 m/s 747 mmHg 70%
    13:00 +22°C° 0.1 mm 6 m/s 747 mmHg 66%
    14:00 +22°C° 0.1 mm 6 m/s 747 mmHg 62%
    15:00 +22°C° 0 mm 5 m/s 747 mmHg 64%
    16:00 +21°C° 0 mm 4 m/s 747 mmHg 66%
    17:00 +20°C° 0 mm 4 m/s 747 mmHg 68%
    18:00 +19°C° 0 mm 4 m/s 748 mmHg 70%
    19:00 +17°C° 0 mm 4 m/s 748 mmHg 72%
    20:00 +15°C° 0 mm 4 m/s 748 mmHg 74%
    21:00 +14°C° 0 mm 3 m/s 748 mmHg 78%
    22:00 +13°C° 0 mm 3 m/s 749 mmHg 83%
    23:00 +12°C° 0 mm 3 m/s 749 mmHg 88%

    Après-demain, 28 Août, Mercredi

    Heure Température Précipitation Vent Pression Humidité
    00:00 +11°C° 0 mm 3 m/s 749 mmHg 89%
    01:00 +12°C° 0 mm 2 m/s 749 mmHg 91%
    02:00 +10°C° 0 mm 2 m/s 750 mmHg 92%
    03:00 +10°C° 0 mm 3 m/s 750 mmHg 93%
    04:00 +9°C° 0 mm 3 m/s 750 mmHg 93%
    05:00 +9°C° 0 mm 3 m/s 750 mmHg 93%
    06:00 +10°C° 0 mm 4 m/s 751 mmHg 85%
    07:00 +11°C° 0 mm 4 m/s 751 mmHg 77%
    08:00 +12°C° 0 mm 4 m/s 751 mmHg 69%
    09:00 +13°C° 0 mm 5 m/s 751 mmHg 66%
    10:00 +14°C° 0 mm 5 m/s 751 mmHg 63%
    11:00 +15°C° 0 mm 5 m/s 751 mmHg 60%
    12:00 +16°C° 0 mm 5 m/s 751 mmHg 57%
    13:00 +16°C° 0 mm 5 m/s 751 mmHg 54%
    14:00 +17°C° 0 mm 5 m/s 751 mmHg 51%
    15:00 +17°C° 0 mm 4 m/s 751 mmHg 54%
    16:00 +15°C° 0 mm 4 m/s 751 mmHg 58%
    17:00 +16°C° 0 mm 3 m/s 751 mmHg 61%
    18:00 +13°C° 0 mm 3 m/s 752 mmHg 63%
    19:00 +12°C° 0 mm 2 m/s 752 mmHg 66%
    20:00 +10°C° 0 mm 2 m/s 752 mmHg 69%
    21:00 +9°C° 0 mm 2 m/s 752 mmHg 71%
    22:00 +9°C° 0 mm 2 m/s 753 mmHg 73%
    23:00 +8°C° 0 mm 2 m/s 753 mmHg 75%

    29 Août, Jeudi

    Heure Température Précipitation Vent Pression Humidité
    00:00 +8°C° 0 mm 2 m/s 753 mmHg 78%
    01:00 +7°C° 0 mm 2 m/s 753 mmHg 80%
    02:00 +7°C° 0 mm 2 m/s 753 mmHg 82%
    03:00 +8°C° 0 mm 1 m/s 754 mmHg 83%
    04:00 +8°C° 0 mm 1 m/s 754 mmHg 85%
    05:00 +7°C° 0 mm 1 m/s 754 mmHg 86%
    06:00 +9°C° 0 mm 1 m/s 754 mmHg 80%
    07:00 +11°C° 0 mm 1 m/s 754 mmHg 74%
    08:00 +12°C° 0 mm 1 m/s 754 mmHg 68%
    09:00 +14°C° 0 mm 2 m/s 753 mmHg 63%
    10:00 +15°C° 0 mm 2 m/s 753 mmHg 57%
    11:00 +16°C° 0 mm 2 m/s 753 mmHg 51%
    12:00 +17°C° 0 mm 2 m/s 753 mmHg 52%
    13:00 +18°C° 0 mm 2 m/s 753 mmHg 52%
    14:00 +20°C° 0 mm 1 m/s 752 mmHg 52%
    15:00 +19°C° 0 mm 1 m/s 752 mmHg 57%
    16:00 +19°C° 0 mm 1 m/s 752 mmHg 62%
    17:00 +19°C° 0 mm 1 m/s 752 mmHg 67%
    18:00 +18°C° 0 mm 1 m/s 751 mmHg 71%
    19:00 +15°C° 0 mm 1 m/s 751 mmHg 75%
    20:00 +13°C° 0 mm 1 m/s 751 mmHg 79%
    21:00 +13°C° 0 mm 1 m/s 751 mmHg 80%
    22:00 +13°C° 0 mm 2 m/s 751 mmHg 82%
    23:00 +12°C° 0 mm 2 m/s 751 mmHg 84%

    30 Août, Vendredi

    Heure Température Précipitation Vent Pression Humidité
    00:00 +12°C° 0 mm 2 m/s 751 mmHg 85%
    01:00 +12°C° 0 mm 2 m/s 750 mmHg 87%
    02:00 +10°C° 0 mm 2 m/s 750 mmHg 88%
    03:00 +10°C° 0 mm 2 m/s 750 mmHg 89%
    04:00 +10°C° 0 mm 3 m/s 750 mmHg 90%
    05:00 +10°C° 0 mm 3 m/s 750 mmHg 90%
    06:00 +11°C° 0 mm 3 m/s 750 mmHg 85%
    07:00 +13°C° 0 mm 3 m/s 750 mmHg 79%
    08:00 +15°C° 0 mm 4 m/s 750 mmHg 73%
    09:00 +17°C° 0 mm 4 m/s 750 mmHg 69%
    10:00 +19°C° 0 mm 4 m/s 750 mmHg 64%
    11:00 +21°C° 0 mm 4 m/s 750 mmHg 60%
    12:00 +21°C° 0 mm 4 m/s 749 mmHg 58%
    13:00 +22°C° 0 mm 4 m/s 749 mmHg 57%
    14:00 +22°C° 0 mm 3 m/s 749 mmHg 56%
    15:00 +22°C° 0 mm 3 m/s 749 mmHg 60%
    16:00 +21°C° 0 mm 3 m/s 749 mmHg 65%
    17:00 +20°C° 0 mm 2 m/s 749 mmHg 70%
    18:00 +18°C° 0 mm 2 m/s 749 mmHg 77%
    19:00 +17°C° 0 mm 2 m/s 749 mmHg 84%
    20:00 +15°C° 0 mm 1 m/s 749 mmHg 90%
    21:00 +14°C° 0 mm 1 m/s 749 mmHg 91%
    22:00 +14°C° 0 mm 1 m/s 749 mmHg 93%
    23:00 +13°C° 0 mm 1 m/s 749 mmHg 94%

    31 Août, Samedi

    Heure Température Précipitation Vent Pression Humidité
    00:00 +13°C° 0 mm 1 m/s 749 mmHg 94%
    01:00 +13°C° 0 mm 1 m/s 749 mmHg 94%
    02:00 +13°C° 0 mm 2 m/s 749 mmHg 95%
    03:00 +12°C° 0 mm 2 m/s 749 mmHg 95%
    04:00 +12°C° 0 mm 1 m/s 749 mmHg 95%
    05:00 +12°C° 0 mm 1 m/s 749 mmHg 95%
    06:00 +14°C° 0 mm 1 m/s 749 mmHg 89%
    07:00 +16°C° 0 mm 2 m/s 749 mmHg 82%
    08:00 +17°C° 0 mm 2 m/s 749 mmHg 75%
    09:00 +19°C° 0 mm 2 m/s 749 mmHg 70%
    10:00 +20°C° 0 mm 2 m/s 749 mmHg 64%
    11:00 +21°C° 0 mm 2 m/s 749 mmHg 58%
    12:00 +23°C° 0 mm 2 m/s 748 mmHg 57%
    13:00 +22°C° 0 mm 3 m/s 748 mmHg 56%
    14:00 +24°C° 0 mm 3 m/s 748 mmHg 55%
    15:00 +22°C° 0 mm 3 m/s 748 mmHg 59%
    16:00 +21°C° 0 mm 2 m/s 747 mmHg 63%
    17:00 +21°C° 0 mm 2 m/s 747 mmHg 68%
    18:00 +19°C° 0 mm 2 m/s 747 mmHg 71%
    19:00 +17°C° 0 mm 2 m/s 747 mmHg 74%
    20:00 +16°C° 0 mm 1 m/s 747 mmHg 77%
    21:00 +15°C° 0 mm 1 m/s 747 mmHg 79%
    22:00 +14°C° 0 mm 2 m/s 747 mmHg 81%
    23:00 +14°C° 0 mm 2 m/s 747 mmHg 82%
    Voir plus